FW1147 Weather Reports


time (UTC)temp
C
wind
direction
speed
KPH
gust
KPH
rain 1hr
cm
rain 24hr
cm
rain mn
cm
humidity
%
barometer
mb
20260906204547 32 178 38.6 56.3 0.00 0.03 0.03 44 1014.9
20260906204024 32 157 37.0 59.5 0.00 0.03 0.03 45 1014.9
20260906203524 32 178 33.8 59.5 0.00 0.03 0.03 45 1015.1
20260906203057 32 166 37.0 51.5 0.00 0.03 0.03 46 1014.9
20260906202525 32 193 37.0 57.9 0.00 0.03 0.03 45 1015.0
20260906202026 32 183 32.2 57.9 0.00 0.03 0.03 46 1015.1
20260906201545 32 173 35.4 54.7 0.00 0.03 0.03 47 1015.1
20260906201026 32 192 37.0 54.7 0.00 0.03 0.03 48 1015.3
20260906200526 32 146 30.6 48.3 0.00 0.03 0.03 49 1015.4
20260906200050 32 184 32.2 53.1 0.00 0.03 0.03 49 1015.6
20260906195525 32 162 33.8 53.1 0.00 0.03 0.03 49 1015.7
20260906195024 32 168 30.6 49.9 0.00 0.03 0.03 49 1015.7
20260906194545 31 161 33.8 53.1 0.00 0.03 0.03 50 1015.6
20260906194025 31 182 38.6 56.3 0.00 0.03 0.03 50 1015.8
20260906193523 31 186 35.4 57.9 0.00 0.03 0.03 50 1015.9
20260906193104 31 169 38.6 57.9 0.00 0.03 0.03 50 1016.0
20260906192525 31 172 30.6 49.9 0.00 0.03 0.03 50 1016.0
20260906192026 31 194 30.6 46.7 0.00 0.03 0.03 49 1016.1
20260906191559 31 190 33.8 46.7 0.00 0.03 0.03 48 1016.2
20260906191023 32 209 30.6 53.1 0.00 0.03 0.03 48 1016.0
20260906190524 31 185 35.4 53.1 0.00 0.03 0.03 49 1016.0
20260906190046 31 210 33.8 51.5 0.00 0.03 0.03 49 1016.1
20260906185526 31 191 29.0 53.1 0.00 0.03 0.03 49 1016.1
20260906185024 31 191 35.4 53.1 0.00 0.03 0.03 49 1016.2
20260906184548 31 169 25.7 45.1 0.00 0.03 0.03 50 1016.2
20260906184024 31 186 29.0 51.5 0.00 0.03 0.03 50 1016.4
20260906183526 31 186 27.4 51.5 0.00 0.03 0.03 52 1016.4
20260906183051 30 172 27.4 45.1 0.00 0.03 0.03 52 1016.6
20260906182526 31 167 29.0 46.7 0.00 0.03 0.03 52 1016.6
20260906182025 30 170 25.7 46.7 0.00 0.03 0.03 53 1016.7
20260906181610 30 188 29.0 43.5 0.00 0.03 0.03 52 1016.8
20260906181024 30 188 24.1 43.5 0.00 0.03 0.03 54 1016.9
20260906180524 30 209 25.7 43.5 0.00 0.03 0.03 55 1017.1
20260906180048 30 192 24.1 45.1 0.00 0.03 0.03 56 1017.1
20260906175525 30 163 30.6 46.7 0.00 0.03 0.03 57 1017.1
20260906175026 30 194 29.0 46.7 0.00 0.03 0.03 57 1017.2
20260906174549 29 196 29.0 46.7 0.00 0.03 0.03 58 1017.3
20260906174029 29 155 29.0 46.7 0.00 0.03 0.03 58 1017.4
20260906173529 29 183 27.4 48.3 0.00 0.03 0.03 57 1017.5
20260906173051 28 166 27.4 48.3 0.00 0.03 0.03 57 1017.5
20260906172526 28 184 30.6 45.1 0.00 0.03 0.03 57 1017.5
20260906172025 28 163 30.6 46.7 0.00 0.03 0.03 57 1017.6
20260906171600 28 158 32.2 46.7 0.00 0.03 0.03 59 1017.7
20260906171025 28 171 32.2 48.3 0.00 0.03 0.03 59 1017.8
20260906170524 28 172 33.8 48.3 0.00 0.03 0.03 59 1018.0
20260906170055 28 147 32.2 48.3 0.00 0.03 0.03 60 1017.9
20260906165524 28 175 33.8 46.7 0.00 0.03 0.03 61 1018.0
20260906165029 27 163 30.6 45.1 0.00 0.03 0.03 62 1018.1
20260906164554 27 143 30.6 40.2 0.00 0.03 0.03 63 1018.1
20260906164023 27 148 25.7 41.8 0.00 0.03 0.03 65 1018.2
20260906163524 27 147 27.4 43.5 0.00 0.03 0.03 65 1018.3
20260906163056 27 151 30.6 45.1 0.00 0.03 0.03 66 1018.3
20260906162528 26 132 29.0 45.1 0.00 0.03 0.03 68 1018.2
20260906162024 26 120 29.0 37.0 0.00 0.03 0.03 70 1018.2
20260906161546 26 134 27.4 37.0 0.00 0.03 0.03 71 1018.3
20260906161025 26 143 27.4 37.0 0.00 0.03 0.03 72 1018.3
20260906160525 25 140 24.1 40.2 0.00 0.03 0.03 74 1018.3
20260906160045 25 123 25.7 40.2 0.00 0.03 0.03 75 1018.2
20260906155523 25 144 25.7 37.0 0.00 0.03 0.03 76 1018.1
20260906155022 25 138 27.4 37.0 0.00 0.03 0.03 77 1018.0
20260906154552 25 132 27.4 37.0 0.00 0.03 0.03 78 1018.0
20260906154027 24 125 25.7 35.4 0.00 0.03 0.03 80 1018.1
20260906153525 23 118 27.4 37.0 0.00 0.03 0.03 80 1018.1
20260906153046 23 143 25.7 37.0 0.00 0.03 0.03 82 1018.2
20260906152526 22 142 29.0 37.0 0.00 0.03 0.03 83 1018.4
20260906152024 22 129 27.4 37.0 0.00 0.03 0.03 83 1018.4
20260906151552 22 132 25.7 37.0 0.00 0.03 0.03 84 1018.5
20260906151023 22 133 25.7 37.0 0.00 0.03 0.03 85 1018.4
20260906150525 22 143 29.0 37.0 0.00 0.03 0.03 87 1018.5
20260906150052 22 146 27.4 37.0 0.00 0.03 0.03 88 1018.4
20260906145524 21 138 29.0 38.6 0.00 0.03 0.03 90 1018.4
20260906145027 21 141 30.6 38.6 0.00 0.03 0.03 92 1018.4
20260906144605 21 143 29.0 38.6 0.00 0.03 0.03 93 1018.4
20260906144024 20 134 24.1 32.2 0.00 0.03 0.03 94 1018.4
20260906143523 20 135 22.5 29.0 0.00 0.03 0.03 94 1018.4
20260906143050 20 128 19.3 25.7 0.00 0.03 0.03 95 1018.4
20260906142524 20 134 19.3 25.7 0.00 0.03 0.03 95 1018.3
20260906142025 20 129 17.7 24.1 0.00 0.03 0.03 96 1018.3
20260906141543 20 138 17.7 24.1 0.00 0.03 0.03 95 1018.3
20260906141024 19 142 17.7 24.1 0.00 0.03 0.03 95 1018.3
20260906140520 19 142 16.1 22.5 0.00 0.03 0.03 96 1018.2
20260906140049 19 127 16.1 25.7 0.00 0.03 0.03 96 1018.2
20260906135521 19 113 17.7 25.7 0.00 0.03 0.03 96 1018.1
20260906135023 18 123 17.7 25.7 0.00 0.03 0.03 95 1018.0
20260906134545 18 115 19.3 25.7 0.00 0.03 0.03 95 1017.9
20260906134024 18 115 17.7 24.1 0.00 0.03 0.03 95 1017.8
20260906133523 18 113 17.7 24.1 0.00 0.03 0.03 95 1017.8
20260906133103 18 122 17.7 22.5 0.00 0.03 0.03 95 1017.6
20260906132523 18 117 16.1 22.5 0.00 0.03 0.03 95 1017.7
20260906132021 18 121 14.5 20.9 0.00 0.03 0.03 95 1017.7
20260906131542 18 105 16.1 22.5 0.00 0.03 0.03 95 1017.6
20260906131024 18 113 16.1 22.5 0.00 0.03 0.03 95 1017.6
20260906130524 18 110 12.9 17.7 0.00 0.03 0.03 95 1017.6
20260906125523 18 107 12.9 20.9 0.00 0.03 0.03 95 1017.7
20260906125025 18 118 14.5 20.9 0.00 0.03 0.03 95 1017.7
20260906124547 18 98 12.9 20.9 0.00 0.03 0.03 95 1017.8
20260906124025 18 114 14.5 20.9 0.00 0.03 0.03 95 1017.8
20260906123523 18 111 16.1 24.1 0.00 0.03 0.03 95 1017.8
20260906123046 18 110 17.7 24.1 0.00 0.03 0.03 94 1017.7
20260906122524 18 110 14.5 22.5 0.00 0.03 0.03 94 1017.7
20260906122024 18 109 16.1 24.1 0.00 0.03 0.03 94 1017.6
20260906121551 18 113 17.7 24.1 0.00 0.03 0.03 94 1017.6
20260906121026 18 115 17.7 27.4 0.00 0.03 0.03 94 1017.5
20260906120524 18 98 19.3 30.6 0.00 0.03 0.03 94 1017.6
20260906120050 18 105 22.5 30.6 0.00 0.03 0.03 94 1017.6
20260906115525 18 115 20.9 27.4 0.00 0.03 0.03 94 1017.7
20260906115024 18 103 22.5 27.4 0.00 0.03 0.03 93 1017.8
20260906114557 18 104 17.7 24.1 0.00 0.03 0.03 93 1017.7
20260906114025 18 105 17.7 25.7 0.00 0.03 0.03 93 1017.7
20260906113524 18 111 19.3 25.7 0.00 0.03 0.03 93 1017.7
20260906113047 18 105 17.7 25.7 0.00 0.03 0.03 93 1017.7
20260906112523 17 103 17.7 29.0 0.00 0.03 0.03 92 1017.8
20260906112027 17 88 22.5 30.6 0.00 0.03 0.03 92 1017.7
20260906111551 17 95 19.3 30.6 0.00 0.03 0.03 92 1017.7
20260906111024 18 91 22.5 29.0 0.00 0.03 0.03 92 1017.7
20260906110524 18 108 16.1 20.9 0.00 0.03 0.03 92 1017.7
20260906110045 18 100 14.5 20.9 0.00 0.03 0.03 92 1017.6
20260906105523 18 82 14.5 20.9 0.00 0.03 0.03 91 1017.6
20260906105025 18 77 14.5 20.9 0.00 0.03 0.03 91 1017.6
20260906104550 18 81 16.1 20.9 0.00 0.03 0.03 91 1017.5
20260906104023 18 87 14.5 22.5 0.00 0.03 0.03 91 1017.5
20260906103525 18 87 17.7 22.5 0.00 0.03 0.03 91 1017.5
20260906103049 18 85 14.5 20.9 0.00 0.03 0.03 91 1017.5
20260906102524 18 80 16.1 19.3 0.00 0.03 0.03 90 1017.5
20260906102024 18 55 11.3 19.3 0.00 0.03 0.03 90 1017.5
20260906101547 18 80 12.9 20.9 0.00 0.03 0.03 90 1017.5
20260906101024 18 71 16.1 20.9 0.00 0.03 0.03 90 1017.6
20260906100524 18 69 12.9 19.3 0.00 0.03 0.03 89 1017.5
20260906100044 18 67 8.0 16.1 0.00 0.03 0.03 89 1017.3
20260906095526 18 65 12.9 16.1 0.00 0.03 0.03 89 1017.3
20260906095024 18 72 12.9 16.1 0.00 0.03 0.03 89 1017.2
20260906094607 18 60 11.3 16.1 0.00 0.03 0.03 88 1017.3
20260906094030 18 71 11.3 16.1 0.00 0.03 0.03 88 1017.3
20260906093523 18 67 8.0 16.1 0.00 0.03 0.03 87 1017.4
20260906093119 18 61 11.3 20.9 0.03 0.03 0.03 87 1017.4
20260906092524 18 57 11.3 20.9 0.03 0.03 0.03 87 1017.4
20260906092026 18 38 11.3 17.7 0.03 0.03 0.03 86 1017.4
20260906091546 19 60 12.9 19.3 0.03 0.03 0.03 86 1017.5
20260906091025 19 55 12.9 19.3 0.03 0.03 0.03 85 1017.5
20260906090524 19 61 16.1 20.9 0.03 0.03 0.03 85 1017.5
20260906090046 20 49 16.1 22.5 0.03 0.03 0.03 84 1017.5
20260906085529 20 62 16.1 22.5 0.03 0.03 0.03 83 1017.3
20260906085025 20 32 14.5 20.9 0.03 0.03 0.03 82 1017.3
20260906084552 20 53 8.0 19.3 0.03 0.03 0.03 81 1017.3
20260906084025 20 18 9.7 24.1 0.03 0.03 0.03 81 1017.4
20260906083525 21 57 8.0 24.1 0.03 0.03 0.03 80 1017.3
20260906083049 21 14 9.7 24.1 0.00 0.00 0.00 78 1017.3
20260906082522 21 28 8.0 30.6 0.00 0.00 0.00 77 1017.3
20260906082033 22 39 16.1 30.6 0.00 0.00 0.00 75 1017.2
20260906081545 23 346 14.5 30.6 0.00 0.00 0.00 74 1017.4
20260906081024 23 352 1.6 33.8 0.00 0.00 0.00 74 1017.2
20260906080525 22 349 4.8 33.8 0.00 0.00 0.00 75 1017.2
20260906080045 22 277 16.1 33.8 0.00 0.00 0.00 77 1017.3
20260906075523 22 346 14.5 22.5 0.00 0.00 0.00 77 1017.3
20260906075024 22 332 3.2 16.1 0.00 0.00 0.00 75 1017.0
20260906074556 22 190 8.0 17.7 0.00 0.00 0.00 75 1016.5
20260906074024 22 165 11.3 24.1 0.00 0.00 0.00 75 1016.3
20260906073525 22 163 12.9 24.1 0.00 0.00 0.00 75 1016.0
20260906073050 22 161 12.9 24.1 0.00 0.00 0.00 75 1016.1
20260906072526 22 180 12.9 24.1 0.00 0.00 0.00 74 1016.0
20260906072024 22 173 14.5 24.1 0.00 0.00 0.00 74 1016.0
20260906071547 22 173 16.1 24.1 0.00 0.00 0.00 74 1016.1
20260906071024 23 161 16.1 24.1 0.00 0.00 0.00 73 1016.1
20260906070524 23 150 16.1 24.1 0.00 0.00 0.00 73 1016.2
20260906070053 23 159 16.1 24.1 0.00 0.00 0.00 73 1016.3
20260906065524 23 173 14.5 22.5 0.00 0.00 0.00 73 1016.3
20260906065025 23 151 12.9 19.3 0.00 0.00 0.00 73 1016.2
20260906064546 23 162 12.9 19.3 0.00 0.00 0.00 73 1016.2
20260906064028 23 161 11.3 19.3 0.00 0.00 0.00 72 1016.0
20260906063524 23 157 14.5 17.7 0.00 0.00 0.00 72 1016.1
20260906063050 23 155 11.3 17.7 0.00 0.00 0.00 72 1016.1
20260906062528 23 151 9.7 19.3 0.00 0.00 0.00 72 1016.2
20260906062023 23 159 12.9 24.1 0.00 0.00 0.00 72 1016.1
20260906061545 23 146 16.1 24.1 0.00 0.00 0.00 72 1016.0
20260906061025 23 169 17.7 25.7 0.00 0.00 0.00 72 1015.9
20260906060528 23 163 16.1 25.7 0.00 0.00 0.00 72 1015.7
20260906060054 23 169 14.5 24.1 0.00 0.00 0.00 72 1015.6
20260906055522 23 156 9.7 14.5 0.00 0.00 0.00 72 1015.6
20260906055024 23 140 9.7 14.5 0.00 0.00 0.00 72 1015.6
20260906054549 23 128 9.7 17.7 0.00 0.00 0.00 72 1015.5
20260906054025 23 138 11.3 17.7 0.00 0.00 0.00 72 1015.4
20260906053533 23 148 12.9 17.7 0.00 0.00 0.00 72 1015.4
20260906053043 23 155 12.9 19.3 0.00 0.00 0.00 72 1015.3
20260906052523 23 157 12.9 22.5 0.00 0.00 0.00 72 1015.3
20260906052026 23 152 12.9 22.5 0.00 0.00 0.00 72 1015.3
20260906051558 23 163 12.9 19.3 0.00 0.00 0.00 71 1015.3
20260906051027 23 146 12.9 19.3 0.00 0.00 0.00 71 1015.3
20260906050525 23 172 12.9 19.3 0.00 0.00 0.00 70 1015.3
20260906050056 23 154 14.5 19.3 0.00 0.00 0.00 70 1015.4
20260906045525 23 154 14.5 20.9 0.00 0.00 0.00 70 1015.6
20260906045023 23 160 14.5 20.9 0.00 0.00 0.00 70 1015.6
20260906044551 23 159 14.5 20.9 0.00 0.00 0.00 69 1015.7
20260906044025 23 178 14.5 25.7 0.00 0.00 0.00 69 1015.7
20260906043523 23 181 14.5 25.7 0.00 0.00 0.00 68 1015.7
20260906043051 24 168 17.7 25.7 0.00 0.00 0.00 68 1015.7
20260906042525 24 169 17.7 27.4 0.00 0.00 0.00 67 1015.7
20260906042024 24 165 17.7 27.4 0.00 0.00 0.00 67 1015.7
20260906041545 24 176 16.1 25.7 0.00 0.00 0.00 67 1015.7
20260906041028 24 176 17.7 25.7 0.00 0.00 0.00 67 1015.8
20260906040524 24 163 17.7 25.7 0.00 0.00 0.00 66 1015.8
20260906040056 25 159 16.1 30.6 0.00 0.00 0.00 66 1015.8
20260906035525 25 167 19.3 30.6 0.00 0.00 0.00 65 1015.8
20260906035025 25 182 19.3 30.6 0.00 0.00 0.00 65 1015.7
20260906034544 25 157 20.9 32.2 0.00 0.00 0.00 64 1015.8
20260906034024 25 157 22.5 32.2 0.00 0.00 0.00 64 1015.7
20260906033523 25 159 20.9 30.6 0.00 0.00 0.00 63 1015.7
20260906033052 25 163 20.9 30.6 0.00 0.00 0.00 63 1015.7
20260906032522 25 160 22.5 30.6 0.00 0.00 0.00 64 1015.8
20260906032023 25 146 16.1 22.5 0.00 0.00 0.00 63 1015.7
20260906031547 25 157 12.9 19.3 0.00 0.00 0.00 62 1015.7
20260906031024 25 142 14.5 19.3 0.00 0.00 0.00 62 1015.6
20260906030524 26 158 12.9 20.9 0.00 0.00 0.00 61 1015.5
20260906030046 26 175 14.5 20.9 0.00 0.00 0.00 60 1015.6
20260906025524 26 154 14.5 20.9 0.00 0.00 0.00 60 1015.6
20260906025024 26 136 14.5 20.9 0.00 0.00 0.00 60 1015.5
20260906024558 26 173 16.1 22.5 0.00 0.00 0.00 59 1015.3
20260906024023 26 166 16.1 22.5 0.00 0.00 0.00 59 1015.4
20260906023523 27 157 14.5 19.3 0.00 0.00 0.00 58 1015.4
20260906023046 27 164 16.1 20.9 0.00 0.00 0.00 57 1015.2
20260906022526 27 160 14.5 22.5 0.00 0.00 0.00 57 1015.1
20260906022025 27 160 16.1 22.5 0.00 0.00 0.00 56 1015.2
20260906021547 27 170 12.9 19.3 0.00 0.00 0.00 55 1015.1
20260906021023 27 158 14.5 22.5 0.00 0.00 0.00 55 1014.9
20260906020524 27 157 14.5 22.5 0.00 0.00 0.00 55 1014.8
20260906020052 27 150 11.3 16.1 0.00 0.00 0.00 55 1014.9
20260906015523 27 146 11.3 14.5 0.00 0.00 0.00 54 1014.8
20260906015023 27 138 9.7 12.9 0.00 0.00 0.00 53 1014.9
20260906014625 28 138 9.7 14.5 0.00 0.00 0.00 52 1014.9
20260906014022 28 137 8.0 14.5 0.00 0.00 0.00 51 1015.0
20260906013524 28 143 11.3 16.1 0.00 0.00 0.00 50 1015.0
20260906013049 29 148 9.7 16.1 0.00 0.00 0.00 50 1015.0
20260906012524 29 146 11.3 19.3 0.00 0.00 0.00 50 1015.0
20260906012023 29 143 12.9 20.9 0.00 0.00 0.00 49 1015.0
20260906011545 30 146 14.5 20.9 0.00 0.00 0.00 49 1015.0
20260906011024 30 144 9.7 19.3 0.00 0.00 0.00 48 1015.1
20260906010523 30 147 11.3 19.3 0.00 0.00 0.00 48 1015.1
20260906010054 30 130 12.9 19.3 0.00 0.00 0.00 47 1015.2
20260906005523 30 126 12.9 17.7 0.00 0.00 0.00 47 1015.0
20260906005025 30 140 11.3 22.5 0.00 0.00 0.00 46 1015.0
20260906004556 31 142 16.1 24.1 0.00 0.00 0.00 46 1014.9
20260906004025 31 145 17.7 30.6 0.00 0.00 0.00 46 1014.9
20260906003524 31 147 20.9 30.6 0.00 0.00 0.00 46 1014.6
20260906003059 31 142 17.7 29.0 0.00 0.00 0.00 46 1014.4
20260906002523 31 134 20.9 27.4 0.00 0.00 0.00 46 1014.3
20260906002025 31 130 19.3 33.8 0.00 0.00 0.00 46 1014.2
20260906001546 31 149 19.3 33.8 0.00 0.00 0.00 45 1014.1
20260906001023 31 150 22.5 29.0 0.00 0.00 0.00 45 1014.0
20260906000524 31 154 19.3 33.8 0.00 0.00 0.00 45 1014.0
20260906000052 31 149 22.5 33.8 0.00 0.00 0.00 44 1014.1
20260905235523 31 153 22.5 33.8 0.00 0.00 0.00 44 1014.1
20260905235027 31 164 25.7 37.0 0.00 0.00 0.00 43 1014.1
20260905234549 31 158 25.7 37.0 0.00 0.00 0.00 42 1014.2
20260905234026 32 160 27.4 37.0 0.00 0.00 0.00 41 1014.2
20260905233528 32 184 22.5 43.5 0.00 0.00 0.00 41 1014.0
20260905233049 32 166 30.6 45.1 0.00 0.00 0.00 40 1013.9
20260905232525 32 173 33.8 45.1 0.00 0.00 0.00 40 1013.9
20260905232024 32 175 27.4 46.7 0.00 0.00 0.00 38 1013.9
20260905231546 32 154 35.4 46.7 0.00 0.00 0.00 38 1013.9
20260905231024 32 162 29.0 49.9 0.00 0.00 0.00 37 1013.9
20260905230523 32 151 33.8 49.9 0.00 0.00 0.00 38 1013.8
20260905230054 32 172 30.6 45.1 0.00 0.00 0.00 38 1013.7
20260905225523 32 144 32.2 46.7 0.00 0.00 0.00 39 1013.7
20260905225024 33 145 29.0 46.7 0.00 0.00 0.00 38 1013.7
20260905224546 33 165 30.6 43.5 0.00 0.00 0.00 38 1013.8
20260905224024 32 159 30.6 45.1 0.00 0.00 0.00 38 1013.8
20260905223525 33 164 27.4 48.3 0.00 0.00 0.00 39 1013.8
20260905223046 32 164 32.2 48.3 0.00 0.00 0.00 39 1013.8
20260905222524 32 135 29.0 46.7 0.00 0.00 0.00 39 1013.8
20260905222021 32 169 33.8 46.7 0.00 0.00 0.00 39 1013.7
20260905221611 32 156 35.4 48.3 0.00 0.00 0.00 40 1013.7
20260905221024 32 151 35.4 48.3 0.00 0.00 0.00 41 1013.8
20260905220523 32 150 33.8 48.3 0.00 0.00 0.00 42 1013.8
20260905220051 32 159 30.6 49.9 0.00 0.00 0.00 43 1013.9
20260905215524 32 154 33.8 49.9 0.00 0.00 0.00 42 1014.0
20260905215025 32 157 32.2 43.5 0.00 0.00 0.00 42 1014.0
20260905214548 32 159 27.4 48.3 0.00 0.00 0.00 41 1014.0
20260905214024 32 178 30.6 48.3 0.00 0.00 0.00 41 1014.1
20260905213522 32 149 33.8 53.1 0.00 0.00 0.00 40 1014.2
20260905213104 32 224 33.8 53.1 0.00 0.00 0.00 42 1014.3
20260905212524 32 164 33.8 46.7 0.00 0.00 0.00 42 1014.4
20260905212025 32 156 29.0 45.1 0.00 0.00 0.00 42 1014.5
20260905211547 33 360 32.2 45.1 0.00 0.00 0.00 41 1014.5
20260905211024 33 360 35.4 45.1 0.00 0.00 0.00 39 1014.6
20260905210525 33 360 30.6 48.3 0.00 0.00 0.00 40 1014.4
20260905210051 34 148 33.8 51.5 0.00 0.00 0.00 39 1014.5
20260905205526 34 159 30.6 51.5 0.00 0.00 0.00 40 1014.4
20260905205026 34 165 35.4 48.3 0.00 0.00 0.00 39 1014.6